GW2764 Weather Reports


time (UTC)temp
C
wind
direction
speed
KPH
gust
KPH
rain 1hr
cm
rain 24hr
cm
rain mn
cm
humidity
%
barometer
mb
20260507085604 -17 74 0.0 0.0 0.00 0.00 0.00 1015.4
20260507085101 -17 70 0.0 0.0 0.00 0.00 0.00 1015.5
20260507084558 -17 68 0.0 0.0 0.00 0.00 0.00 1015.6
20260507084055 -17 70 0.0 0.0 0.00 0.00 0.00 1015.3
20260507083551 -17 56 0.0 0.0 0.00 0.00 0.00 1015.4
20260507083048 -17 72 0.0 0.0 0.00 0.00 0.00 1015.5
20260507082544 -17 67 0.0 0.0 0.00 0.00 0.00 1015.4
20260507082041 -17 67 0.0 0.0 0.00 0.00 0.00 1015.5
20260507081537 -17 60 0.0 0.0 0.00 0.00 0.00 1015.2
20260507081034 -17 67 0.0 0.0 0.00 0.00 0.00 1015.4
20260507080529 -17 68 0.0 0.0 0.00 0.00 0.00 1015.5
20260507080026 -17 75 0.0 0.0 0.00 0.00 0.00 1015.4
20260507075522 -17 72 0.0 0.0 0.00 0.00 0.00 1015.6
20260507075018 -17 65 0.0 0.0 0.00 0.00 0.00 1015.5
20260507074515 -17 63 0.0 0.0 0.00 0.00 0.00 1015.6
20260507074014 -17 64 0.0 0.0 0.00 0.00 0.00 1015.6
20260507073509 -17 49 0.0 0.0 0.00 0.00 0.00 1015.6
20260507073006 -17 63 0.0 0.0 0.00 0.00 0.00 1015.6
20260507072504 -17 53 0.0 0.0 0.00 0.00 0.00 1015.6
20260507072001 -17 63 0.0 0.0 0.00 0.00 0.00 1015.6
20260507071458 -17 50 0.0 0.0 0.00 0.00 0.00 1015.8
20260507070954 -17 67 0.0 0.0 0.00 0.00 0.00 1015.7
20260507070452 -17 69 0.0 0.0 0.00 0.00 0.00 1015.7
20260507065948 -17 63 0.0 0.0 0.00 0.00 0.00 1015.8
20260507065445 -17 68 0.0 0.0 0.00 0.00 0.00 1015.7
20260507064942 -17 69 0.0 0.0 0.00 0.00 0.00 1015.8
20260507064440 -17 64 0.0 0.0 0.00 0.00 0.00 1015.7
20260507063938 -17 64 0.0 0.0 0.00 0.00 0.00 1015.8
20260507063435 -17 63 0.0 0.0 0.00 0.00 0.00 1015.8
20260507062932 -17 68 0.0 0.0 0.00 0.00 0.00 1015.7
20260507062429 -17 66 0.0 0.0 0.00 0.00 0.00 1015.7
20260507061926 -17 63 0.0 0.0 0.00 0.00 0.00 1015.8
20260507061424 -17 61 0.0 0.0 0.00 0.00 0.00 1015.6
20260507060922 -17 66 0.0 0.0 0.00 0.00 0.00 1015.5
20260507060413 -17 60 0.0 0.0 0.00 0.00 0.00 1015.5
20260507055910 -17 65 0.0 0.0 0.00 0.00 0.00 1015.6
20260507055405 -17 67 0.0 0.0 0.00 0.00 0.00 1015.6
20260507054902 -17 66 0.0 0.0 0.00 0.00 0.00 1015.6
20260507054358 -17 70 0.0 0.0 0.00 0.00 0.00 1015.6
20260507053855 -17 67 0.0 0.0 0.00 0.00 0.00 1015.8
20260507053353 -17 69 0.0 0.0 0.00 0.00 0.00 1015.7
20260507052852 -17 68 0.0 0.0 0.00 0.00 0.00 1015.7
20260507052348 -17 66 0.0 0.0 0.00 0.00 0.00 1015.6
20260507051845 -17 63 0.0 0.0 0.00 0.00 0.00 1015.6
20260507051342 -17 69 0.0 0.0 0.00 0.00 0.00 1015.5
20260507050834 -17 68 0.0 0.0 0.00 0.00 0.00 1015.4
20260507050330 -17 66 0.0 0.0 0.00 0.00 0.00 1015.5
20260507045827 -17 63 0.0 0.0 0.00 0.00 0.00 1015.6
20260507045324 -17 63 0.0 0.0 0.00 0.00 0.00 1015.7
20260507044821 -17 67 0.0 0.0 0.00 0.00 0.00 1015.4
20260507044318 -17 63 0.0 0.0 0.00 0.00 0.00 1015.3
20260507043814 -17 64 0.0 0.0 0.00 0.00 0.00 1015.5
20260507043310 -17 56 0.0 0.0 0.00 0.00 0.00 1015.5
20260507042807 -17 59 0.0 0.0 0.00 0.00 0.00 1015.3
20260507042306 -17 70 0.0 0.0 0.00 0.00 0.00 1015.5
20260507041800 -17 68 0.0 0.0 0.00 0.00 0.00 1015.2
20260507041256 -17 74 0.0 0.0 0.00 0.00 0.00 1015.1
20260507040753 -17 79 0.0 0.0 0.00 0.00 0.00 1015.3
20260507040249 -17 88 0.0 0.0 0.00 0.00 0.00 1015.1
20260507035745 -17 75 0.0 0.0 0.00 0.00 0.00 1015.0
20260507035241 -17 74 0.0 0.0 0.00 0.00 0.00 1015.0
20260507034739 -17 72 0.0 0.0 0.00 0.00 0.00 1014.7
20260507034235 -17 63 0.0 0.0 0.00 0.00 0.00 1014.7
20260507033734 -17 68 0.0 0.0 0.00 0.00 0.00 1014.7
20260507033231 -17 124 0.0 0.0 0.00 0.00 0.00 1014.6
20260507032728 -17 137 0.0 0.0 0.00 0.00 0.00 1014.7
20260507032224 -17 90 0.0 0.0 0.00 0.00 0.00 1014.5
20260507031721 -17 84 0.0 0.0 0.00 0.00 0.00 1014.4
20260507031217 -17 103 0.0 0.0 0.00 0.00 0.00 1014.4
20260507030714 -17 80 0.0 0.0 0.00 0.00 0.00 1014.3
20260507030212 -17 79 0.0 0.0 0.00 0.00 0.00 1014.1
20260507025709 -17 93 0.0 0.0 0.00 0.00 0.00 1014.1
20260507025206 -17 80 0.0 0.0 0.00 0.00 0.00 1014.1
20260507024704 -17 122 0.0 0.0 0.00 0.00 0.00 1014.0
20260507024201 -17 111 0.0 0.0 0.00 0.00 0.00 1014.0
20260507023656 -17 140 0.0 0.0 0.00 0.00 0.00 1013.9
20260507023154 -17 68 0.0 0.0 0.00 0.00 0.00 1013.8
20260507022651 -17 178 0.0 0.0 0.00 0.00 0.00 1013.9
20260507022146 -17 229 0.0 0.0 0.00 0.00 0.00 1013.9
20260507021643 -17 125 0.0 0.0 0.00 0.00 0.00 1013.8
20260507021138 -17 243 0.0 0.0 0.00 0.00 0.00 1013.7
20260507020637 -17 241 0.0 0.0 0.00 0.00 0.00 1013.8
20260507020133 -17 224 1.6 3.2 0.00 0.00 0.00 1013.8
20260507015631 -17 229 0.0 1.6 0.00 0.00 0.00 1013.6
20260507015128 -17 216 0.0 0.0 0.00 0.00 0.00 1013.8
20260507014625 -17 168 0.0 0.0 0.00 0.00 0.00 1013.6
20260507014121 -17 233 0.0 0.0 0.00 0.00 0.00 1013.3
20260507013618 -17 320 0.0 0.0 0.00 0.00 0.00 1013.3
20260507013115 -17 254 0.0 0.0 0.00 0.00 0.00 1013.1
20260507012612 -17 237 0.0 0.0 0.00 0.00 0.00 1013.3
20260507012107 -17 272 0.0 0.0 0.00 0.00 0.00 1013.2
20260507011606 -17 236 0.0 0.0 0.00 0.00 0.00 1013.3
20260507011102 -17 264 0.0 1.6 0.00 0.00 0.00 1013.3
20260507010556 -17 338 0.0 1.6 0.00 0.00 0.00 1013.7
20260507010053 -17 245 3.2 4.8 0.00 0.00 0.00 1013.2
20260507005550 -17 25 0.0 0.0 0.00 0.00 0.00 1013.2
20260507005046 -17 203 1.6 3.2 0.00 0.00 0.00 1013.3
20260507004543 -17 250 4.8 11.3 0.00 0.00 0.00 1013.3
20260507004041 -17 183 0.0 1.6 0.00 0.00 0.00 1013.2
20260507003536 -17 112 0.0 0.0 0.00 0.00 0.00 1013.2
20260507003032 -17 219 3.2 11.3 0.00 0.00 0.00 1013.4
20260507002529 -17 267 3.2 9.7 0.00 0.00 0.00 1013.6
20260507002025 -17 41 0.0 0.0 0.00 0.00 0.00 1013.2
20260507001521 -17 222 0.0 0.0 0.00 0.00 0.00 1013.3
20260507001019 -17 262 0.0 0.0 0.00 0.00 0.00 1013.3
20260507000514 -17 251 0.0 0.0 0.00 0.00 0.00 1013.4
20260507000011 -17 259 4.8 9.7 0.00 0.00 0.00 1013.2
20260506235508 -17 113 0.0 0.0 0.00 0.00 0.00 1013.3
20260506235004 -17 151 1.6 4.8 0.00 0.00 0.00 1013.3
20260506234502 -17 322 3.2 9.7 0.00 0.00 0.00 1013.3
20260506233958 -17 215 0.0 0.0 0.00 0.00 0.00 1013.4
20260506233455 -17 239 0.0 0.0 0.00 0.00 0.00 1013.3
20260506232951 -17 153 0.0 0.0 0.00 0.00 0.00 1013.7
20260506232447 -17 241 1.6 3.2 0.00 0.00 0.00 1013.6
20260506231938 -17 279 0.0 1.6 0.00 0.00 0.00 1013.6
20260506231436 -17 283 0.0 0.0 0.00 0.00 0.00 1013.4
20260506230933 -17 252 0.0 0.0 0.00 0.00 0.00 1013.8
20260506230429 -17 214 0.0 0.0 0.00 0.00 0.00 1013.4
20260506225925 -17 248 1.6 9.7 0.00 0.00 0.00 1013.6
20260506225423 -17 340 0.0 0.0 0.00 0.00 0.00 1013.7
20260506224920 -17 265 3.2 8.0 0.00 0.00 0.00 1013.7
20260506224417 -17 273 0.0 0.0 0.00 0.00 0.00 1013.8
20260506223913 -17 227 0.0 3.2 0.00 0.00 0.00 1013.9
20260506223409 -17 195 1.6 3.2 0.00 0.00 0.00 1013.7
20260506222906 -17 204 0.0 0.0 0.00 0.00 0.00 1013.9
20260506222402 -17 339 0.0 0.0 0.00 0.00 0.00 1014.1
20260506221900 -17 22 0.0 0.0 0.00 0.00 0.00 1013.9
20260506221356 -17 204 0.0 0.0 0.00 0.00 0.00 1014.2
20260506220854 -17 352 0.0 1.6 0.00 0.00 0.00 1014.0
20260506220350 -17 91 0.0 0.0 0.00 0.00 0.00 1014.3
20260506215846 -17 33 0.0 0.0 0.00 0.00 0.00 1014.3
20260506215341 -17 196 6.4 9.7 0.00 0.00 0.00 1014.1
20260506214833 -17 223 8.0 14.5 0.00 0.00 0.00 1014.5
20260506214329 -17 137 0.0 0.0 0.00 0.00 0.00 1014.3
20260506213828 -17 67 0.0 0.0 0.00 0.00 0.00 1014.4
20260506213324 -17 256 1.6 3.2 0.00 0.00 0.00 1014.6
20260506212822 -17 141 0.0 0.0 0.00 0.00 0.00 1014.5
20260506212317 -17 237 3.2 8.0 0.00 0.00 0.00 1014.6
20260506211813 -17 121 0.0 0.0 0.00 0.00 0.00 1015.0
20260506211309 -17 146 0.0 0.0 0.00 0.00 0.00 1015.0
20260506210807 -17 32 8.0 14.5 0.00 0.00 0.00 1015.3
20260506210303 -17 40 0.0 0.0 0.00 0.00 0.00 1015.0
20260506205800 -17 243 3.2 8.0 0.00 0.00 0.00 1015.1
20260506205256 -17 303 1.6 3.2 0.00 0.00 0.00 1015.3
20260506204753 -17 236 0.0 1.6 0.00 0.00 0.00 1015.4
20260506204251 -17 249 0.0 0.0 0.00 0.00 0.00 1015.4
20260506203748 -17 251 0.0 0.0 0.00 0.00 0.00 1015.3
20260506203245 -17 297 0.0 0.0 0.00 0.00 0.00 1015.4
20260506202742 -17 5 3.2 8.0 0.00 0.00 0.00 1015.5
20260506202239 -17 104 1.6 3.2 0.00 0.00 0.00 1015.5
20260506201736 -17 114 0.0 0.0 0.00 0.00 0.00 1015.5
20260506201232 -17 85 0.0 0.0 0.00 0.00 0.00 1015.5
20260506200729 -17 247 0.0 1.6 0.00 0.00 0.00 1015.8
20260506200226 -17 182 0.0 1.6 0.00 0.00 0.00 1015.8
20260506195722 -17 199 8.0 11.3 0.00 0.00 0.00 1015.5
20260506195219 -17 266 0.0 0.0 0.00 0.00 0.00 1015.8
20260506194716 -17 304 0.0 0.0 0.00 0.00 0.00 1015.8
20260506194212 -17 53 0.0 0.0 0.00 0.00 0.00 1015.7
20260506193711 -17 265 0.0 0.0 0.00 0.00 0.00 1015.9
20260506193207 -17 350 0.0 0.0 0.00 0.00 0.00 1016.1
20260506192658 -17 156 16.1 17.7 0.00 0.00 0.00 1015.8
20260506192154 -17 232 3.2 16.1 0.00 0.00 0.00 1016.0
20260506191652 -17 155 6.4 9.7 0.00 0.00 0.00 1015.8
20260506191147 -17 190 8.0 11.3 0.00 0.00 0.00 1015.8
20260506190645 -17 173 0.0 0.0 0.00 0.00 0.00 1016.0
20260506190141 -17 240 8.0 9.7 0.00 0.00 0.00 1016.1
20260506185639 -17 230 0.0 0.0 0.00 0.00 0.00 1016.0
20260506185134 -17 144 0.0 0.0 0.00 0.00 0.00 1016.1
20260506184632 -17 61 0.0 0.0 0.00 0.00 0.00 1016.1
20260506184129 -17 229 6.4 12.9 0.00 0.00 0.00 1016.1
20260506183626 -17 70 0.0 0.0 0.00 0.00 0.00 1016.6
20260506183122 -17 218 9.7 11.3 0.00 0.00 0.00 1016.2
20260506182620 -17 134 0.0 1.6 0.00 0.00 0.00 1016.6
20260506182116 -17 176 0.0 0.0 0.00 0.00 0.00 1016.6
20260506181614 -17 254 4.8 12.9 0.00 0.00 0.00 1016.7
20260506181111 -17 239 3.2 8.0 0.00 0.00 0.00 1016.7
20260506180608 -17 233 3.2 8.0 0.00 0.00 0.00 1016.8
20260506180105 -17 208 0.0 0.0 0.00 0.00 0.00 1016.8
20260506175601 -17 353 0.0 0.0 0.00 0.00 0.00 1016.7
20260506175057 -17 229 0.0 1.6 0.00 0.00 0.00 1016.6
20260506174556 -17 243 4.8 8.0 0.00 0.00 0.00 1016.9
20260506174052 -17 247 0.0 0.0 0.00 0.00 0.00 1016.8
20260506173550 -17 346 0.0 1.6 0.00 0.00 0.00 1016.7
20260506173046 -17 302 0.0 0.0 0.00 0.00 0.00 1016.7
20260506172543 -17 237 0.0 0.0 0.00 0.00 0.00 1016.8
20260506172039 -17 224 4.8 4.8 0.00 0.00 0.00 1016.9
20260506171536 -17 90 0.0 0.0 0.00 0.00 0.00 1016.8
20260506171029 -17 273 0.0 0.0 0.00 0.00 0.00 1016.8
20260506170526 -17 192 0.0 3.2 0.00 0.00 0.00 1016.7
20260506170023 -17 214 0.0 0.0 0.00 0.00 0.00 1016.6
20260506165521 -17 234 1.6 11.3 0.00 0.00 0.00 1016.7
20260506165012 -17 333 0.0 0.0 0.00 0.00 0.00 1016.6
20260506164509 -17 274 0.0 1.6 0.00 0.00 0.00 1016.8
20260506164007 -17 211 0.0 0.0 0.00 0.00 0.00 1016.8
20260506163502 -17 163 0.0 0.0 0.00 0.00 0.00 1016.6
20260506162956 -17 194 0.0 0.0 0.00 0.00 0.00 1016.7
20260506162454 -17 186 0.0 0.0 0.00 0.00 0.00 1016.5
20260506161945 -17 63 0.0 0.0 0.00 0.00 0.00 1016.5
20260506161443 -17 192 0.0 0.0 0.00 0.00 0.00 1016.3
20260506160935 -17 125 0.0 0.0 0.00 0.00 0.00 1016.3
20260506160432 -17 175 0.0 0.0 0.00 0.00 0.00 1016.3
20260506155929 -17 183 0.0 1.6 0.00 0.00 0.00 1016.7
20260506155426 -17 186 0.0 1.6 0.00 0.00 0.00 1016.5
20260506153548 -17 225 1.6 3.2 0.00 0.00 0.00 1016.6
20260506153046 -17 154 0.0 0.0 0.00 0.00 0.00 1016.3
20260506152542 -17 112 0.0 0.0 0.00 0.00 0.00 1016.5
20260506152041 -17 55 0.0 0.0 0.00 0.00 0.00 1016.3
20260506151538 -17 124 0.0 0.0 0.00 0.00 0.00 1016.3
20260506151035 -17 235 0.0 0.0 0.00 0.00 0.00 1016.3
20260506150531 -17 169 0.0 0.0 0.00 0.00 0.00 1016.2
20260506150028 -17 131 1.6 3.2 0.00 0.00 0.00 1016.5
20260506145525 -17 127 0.0 0.0 0.00 0.00 0.00 1016.2
20260506145023 -17 194 0.0 0.0 0.00 0.00 0.00 1016.1
20260506144519 -17 81 0.0 0.0 0.00 0.00 0.00 1016.6
20260506144017 -17 123 0.0 0.0 0.00 0.00 0.00 1016.5
20260506143514 -17 79 0.0 0.0 0.00 0.00 0.00 1016.3
20260506143013 -17 171 0.0 0.0 0.00 0.00 0.00 1016.5
20260506142510 -17 195 0.0 0.0 0.00 0.00 0.00 1016.2
20260506142008 -17 158 0.0 0.0 0.00 0.00 0.00 1016.2
20260506141506 -17 149 0.0 0.0 0.00 0.00 0.00 1016.2
20260506141004 -17 50 0.0 0.0 0.00 0.00 0.00 1016.0
20260506140501 -17 59 0.0 0.0 0.00 0.00 0.00 1016.0
20260506135957 -17 63 0.0 0.0 0.00 0.00 0.00 1016.0
20260506135455 -17 60 0.0 0.0 0.00 0.00 0.00 1015.8
20260506134950 -17 99 0.0 0.0 0.00 0.00 0.00 1015.5
20260506134446 -17 80 0.0 0.0 0.00 0.00 0.00 1015.7
20260506133943 -17 72 0.0 0.0 0.00 0.00 0.00 1015.7
20260506133441 -17 153 0.0 0.0 0.00 0.00 0.00 1015.5
20260506132937 -17 119 0.0 0.0 0.00 0.00 0.00 1015.2
20260506132434 -17 87 0.0 0.0 0.00 0.00 0.00 1015.3
20260506131932 -17 100 0.0 0.0 0.00 0.00 0.00 1015.4
20260506131428 -17 91 0.0 0.0 0.00 0.00 0.00 1015.3
20260506130925 -17 68 0.0 0.0 0.00 0.00 0.00 1015.4
20260506130422 -17 66 0.0 0.0 0.00 0.00 0.00 1015.3
20260506125920 -17 74 0.0 0.0 0.00 0.00 0.00 1015.1
20260506125418 -17 81 0.0 0.0 0.00 0.00 0.00 1015.0
20260506124916 -17 116 0.0 0.0 0.00 0.00 0.00 1015.1
20260506124413 -17 98 0.0 0.0 0.00 0.00 0.00 1015.0
20260506123911 -17 100 0.0 0.0 0.00 0.00 0.00 1014.6
20260506123409 -17 97 0.0 0.0 0.00 0.00 0.00 1014.7
20260506122906 -17 81 0.0 0.0 0.00 0.00 0.00 1014.7
20260506122402 -17 69 0.0 0.0 0.00 0.00 0.00 1014.6
20260506121901 -17 69 0.0 0.0 0.00 0.00 0.00 1014.4
20260506121357 -17 67 0.0 0.0 0.00 0.00 0.00 1014.7
20260506120854 -17 66 0.0 0.0 0.00 0.00 0.00 1014.2
20260506120352 -17 67 0.0 0.0 0.00 0.00 0.00 1014.5
20260506115849 -17 70 0.0 0.0 0.00 0.00 0.00 1014.4
20260506115347 -17 65 0.0 0.0 0.00 0.00 0.00 1014.2
20260506114845 -17 67 0.0 0.0 0.00 0.00 0.00 1014.4
20260506114342 -17 64 0.0 0.0 0.00 0.00 0.00 1014.3
20260506113841 -17 60 0.0 0.0 0.00 0.00 0.00 1014.5
20260506113338 -17 67 0.0 0.0 0.00 0.00 0.00 1014.5
20260506112834 -17 65 0.0 0.0 0.00 0.00 0.00 1014.6
20260506112332 -17 59 0.0 0.0 0.00 0.00 0.00 1014.4
20260506111829 -17 63 0.0 0.0 0.00 0.00 0.00 1014.5
20260506111328 -17 61 0.0 0.0 0.00 0.00 0.00 1014.4
20260506110825 -17 66 0.0 0.0 0.00 0.00 0.00 1014.5
20260506110321 -17 66 0.0 0.0 0.00 0.00 0.00 1014.4
20260506105818 -17 73 0.0 0.0 0.00 0.00 0.00 1014.2
20260506105315 -17 92 0.0 0.0 0.00 0.00 0.00 1014.3
20260506104812 -17 105 0.0 0.0 0.00 0.00 0.00 1014.3
20260506104310 -17 87 0.0 0.0 0.00 0.00 0.00 1014.2
20260506103808 -17 117 0.0 0.0 0.00 0.00 0.00 1014.4
20260506103305 -17 101 0.0 0.0 0.00 0.00 0.00 1014.1
20260506102802 -17 100 0.0 0.0 0.00 0.00 0.00 1014.4
20260506102300 -17 83 0.0 0.0 0.00 0.00 0.00 1014.3
20260506101757 -17 76 0.0 0.0 0.00 0.00 0.00 1014.3
20260506101253 -17 94 0.0 0.0 0.00 0.00 0.00 1014.2
20260506100751 -17 96 0.0 0.0 0.00 0.00 0.00 1014.0
20260506100249 -17 76 0.0 0.0 0.00 0.00 0.00 1014.2
20260506095747 -17 92 0.0 0.0 0.00 0.00 0.00 1014.2
20260506095244 -17 79 0.0 0.0 0.00 0.00 0.00 1014.3
20260506094740 -17 85 0.0 0.0 0.00 0.00 0.00 1014.0
20260506094239 -17 84 0.0 0.0 0.00 0.00 0.00 1014.1
20260506093737 -17 94 0.0 0.0 0.00 0.00 0.00 1014.2
20260506093234 -17 107 0.0 0.0 0.00 0.00 0.00 1014.2
20260506092732 -17 149 0.0 0.0 0.00 0.00 0.00 1014.2
20260506092230 -17 134 0.0 0.0 0.00 0.00 0.00 1014.2
20260506091727 -17 114 0.0 0.0 0.00 0.00 0.00 1013.9
20260506091224 -17 214 0.0 0.0 0.00 0.00 0.00 1014.0
20260506090721 -17 85 0.0 0.0 0.00 0.00 0.00 1014.0
20260506090218 -17 110 0.0 0.0 0.00 0.00 0.00 1013.9